Volk, WI

2:18 PM CST on January 19, 2018 (GMT -0600)
Volk

Weather History for KVOK - July, 2014

Change the Weather History Date:

Saturday, July 5, 2014

  Actual Average Record
Temperature  
Mean Temperature 68 °F -  
Max Temperature 78 °F 77 °F 98 °F (2012)
Min Temperature 58 °F 62 °F 49 °F (2008)
Cooling Degree Days 3    
Growing Degree Days 18 (Base 50)    
Moisture  
Dew Point 60 °F    
Average Humidity 75    
Maximum Humidity 92    
Minimum Humidity 57    
Precipitation  
Precipitation 0.00 in - - ()
Sea Level Pressure  
Sea Level Pressure 30.09 in    
Wind  
Wind Speed 8 mph (South)    
Max Wind Speed 16 mph    
Max Gust Speed 24 mph    
Visibility 10 miles    
Events      
Averages and records for this station are not official NWS values.
T = Trace of Precipitation, MM = Missing Value Source: NWS Daily Summary

Daily Weather History Graph

Daily Weather History Graph

Search for Another Location

Airport or City:

Trip Planner

Search our weather history database for the weather conditions in past years. The results will help you decide how hot, cold, wet, or windy it might be!

Date:

Astronomy

Jul. 05, 2014 Rise Set
Actual Time 5:24 AM CDT 8:46 PM CDT
Civil Twilight 4:48 AM CDT 9:22 PM CDT
Nautical Twilight 4:02 AM CDT 10:08 PM CDT
Astronomical Twilight 3:03 AM CDT 11:06 PM CDT
Moon 1:36 PM CDT (7/5) 12:23 AM CDT (7/5)
Length of Visible Light 16h 33m
Length of Day
15h 21m
First Quarter, 52% of the Moon is Illuminated
Jul 5
First Quarter
Jul 12
Full
Jul 18
Last Quarter
Jul 26
New
Aug 3
First Quarter

Hourly Weather History & Observations

Time (CDT) Temp. Dew Point Humidity Pressure Visibility Wind Dir Wind Speed Gust Speed Precip Events Conditions
12:58 AM 63.5 °F 54.9 °F 73% 30.22 in 10.0 mi South 6.9 mph - N/A   Clear
1:58 AM 61.9 °F 55.6 °F 80% 30.22 in 10.0 mi South 6.9 mph - N/A   Clear
2:58 AM 61.7 °F 55.0 °F 79% 30.21 in 10.0 mi SSE 5.8 mph - N/A   Clear
3:58 AM 58.8 °F 55.4 °F 88% 30.20 in 10.0 mi SE 6.9 mph - N/A   Scattered Clouds
4:58 AM 59.0 °F 54.9 °F 86% 30.17 in 10.0 mi SSE 6.9 mph - N/A   Overcast
5:58 AM 59.5 °F 54.5 °F 83% 30.17 in 10.0 mi SSE 1.2 mph - N/A   Mostly Cloudy
6:58 AM 60.1 °F 56.1 °F 87% 30.18 in 10.0 mi SE 3.5 mph - N/A   Clear
7:58 AM 63.3 °F 57.4 °F 81% 30.19 in 10.0 mi South 6.9 mph - N/A   Clear
8:58 AM 65.7 °F 55.9 °F 71% 30.19 in 10.0 mi South 8.1 mph - N/A   Partly Cloudy
9:58 AM 68.9 °F 57.2 °F 66% 30.16 in 10.0 mi South 8.1 mph - N/A   Partly Cloudy
10:58 AM 72.7 °F 58.3 °F 60% 30.14 in 10.0 mi South 10.4 mph 17.3 mph N/A   Clear
11:58 AM 74.7 °F 59.9 °F 60% 30.11 in 10.0 mi South 10.4 mph - N/A   Clear
12:58 PM 76.3 °F 60.8 °F 59% 30.09 in 10.0 mi South 10.4 mph 20.7 mph N/A   Clear
1:58 PM 78.1 °F 61.7 °F 57% 30.08 in 10.0 mi South 16.1 mph 19.6 mph N/A   Partly Cloudy
2:58 PM 76.3 °F 62.1 °F 61% 30.07 in 10.0 mi South 9.2 mph 24.2 mph N/A   Scattered Clouds
3:58 PM 76.3 °F 62.8 °F 63% 30.06 in 10.0 mi South 15.0 mph 20.7 mph N/A   Mostly Cloudy
4:58 PM 74.3 °F 62.1 °F 65% 30.05 in 10.0 mi SSW 11.5 mph - N/A   Scattered Clouds
5:53 PM 73.4 °F 62.6 °F 69% 30.03 in 10.0 mi South 8.1 mph - N/A   Mostly Cloudy
5:58 PM 73.4 °F 62.6 °F 69% 30.03 in 10.0 mi South 6.9 mph - N/A   Mostly Cloudy
6:58 PM 72.9 °F 63.3 °F 72% 30.01 in 10.0 mi South 9.2 mph - N/A   Scattered Clouds
7:03 PM 71.6 °F 62.6 °F 73% 30.01 in 10.0 mi South 6.9 mph - N/A   Mostly Cloudy
7:58 PM 71.1 °F 62.8 °F 75% 30.01 in 10.0 mi SSW 8.1 mph - N/A   Overcast
8:58 PM 69.6 °F 62.6 °F 78% 30.00 in 10.0 mi South 11.5 mph 18.4 mph N/A   Overcast
9:58 PM 68.4 °F 62.6 °F 82% 30.00 in 10.0 mi South 11.5 mph 17.3 mph N/A   Overcast
10:13 PM 68.0 °F 62.6 °F 83% 30.01 in 10.0 mi South 12.7 mph - N/A   Overcast
10:58 PM 66.4 °F 62.8 °F 88% 30.00 in 10.0 mi South 10.4 mph - N/A   Overcast
11:13 PM 66.2 °F 62.6 °F 88% 29.99 in 10.0 mi South 10.4 mph - N/A   Overcast
11:58 PM 66.0 °F 63.7 °F 92% 29.99 in 10.0 mi South 5.8 mph - N/A   Overcast